{"data":{"norad_id":62418,"intl_designator":"2024-249K","name":"STARLINK-11447 [DTC]","alt_names":[],"object_type":"PAYLOAD","status":"ACTIVE","operator":null,"country":"US","launch_date":"2024-12-23","launch_site_code":"AFETR","launch_vehicle":null,"mission":null,"orbit_class":"UNKNOWN","rcs_meters":null,"size_class":null,"mass_kg":null,"dimensions":null,"purposes":["comms"],"wikipedia_slug":null,"has_3d_model":false,"image_url":null,"decayed_at":null,"tle_current":{"epoch":"2026-09-21T18:34:20.364384Z","epoch_age_seconds":64517,"freshness":"FRESH","line1":"1 62418U 24249K   26264.77384681  .00126338  00000+0  97168-3 0  9992","line2":"2 62418  43.0007  65.3608 0002988 291.1373  68.9175 15.70873890100328","mean_motion":15.7087389,"eccentricity":0.0002988,"inclination_deg":43.0007,"raan_deg":65.3608,"arg_perigee_deg":291.1373,"mean_anomaly_deg":68.9175,"bstar":0.00097168,"rev_number":10032,"period_min":91.668720778089,"perigee_km":354.38592022983,"apogee_km":358.41047846496,"semimajor_km":6734.5351993474,"source":"CELESTRAK","updated_at":"2026-09-22T09:00:49.577174Z"}}}